Location: Newark
(53.0833°N, 25.3167°E)
Time: 22:26:56
(UTC+00:00)

X-37B - Visible Passes

Search period start: 30 September 2020 00:00
Search period end: 10 October 2020 00:00
Orbit: 386 x 387 km, 45.0° (Epoch: 18 September)

Date Brightness Start Highest point End Pass type
(mag) Time Alt. Az. Time Alt. Az. Time Alt. Az.
04 Oct 3.1 17:18:49 10° S 17:19:29 11° SSE 17:19:29 11° SSE visible
05 Oct 3.1 17:55:11 10° SSW 17:55:54 13° SSW 17:55:54 13° SSW visible
06 Oct 2.7 16:57:12 10° SSW 16:59:03 15° SSE 16:59:59 13° SE visible
07 Oct 2.6 17:34:16 10° SW 17:36:16 19° S 17:36:16 19° S visible
08 Oct 2.7 16:36:04 10° SSW 16:38:16 17° S 16:40:16 11° SE visible
08 Oct 3.4 18:11:57 10° SW 18:12:31 13° SW 18:12:31 13° SW visible
09 Oct 2.5 17:13:29 10° SW 17:15:51 19° S 17:16:30 18° SSE visible
